AirNav   Air Wisconsin Up To $57,000 Bonus
 
 1222 users online  

20KS Airpark Estates Airport
Augusta, Kansas, USA

GOING TO AUGUSTA?


FAA INFORMATION EFFECTIVE 15 JULY 2021

Location

FAA Identifier: 20KS
Lat/Long: 37-40-33.0650N 096-53-07.1160W
37-40.551083N 096-53.118600W
37.6758514,-96.8853100
(estimated)
Elevation: 1340 ft. / 408 m (estimated)
Variation: 06E (1985)
From city: 4 miles E of AUGUSTA, KS
Time zone: UTC -5 (UTC -6 during Standard Time)
Zip code: 67010

Airport Operations

Airport use: Private use. Permission required prior to landing
Activation date: 12/1982
Control tower: no
ARTCC: KANSAS CITY CENTER
FSS: WICHITA FLIGHT SERVICE STATION
Attendance: UNATNDD
Wind indicator: yes
Segmented circle: no

Airport Communications

WX AWOS-3P at EQA (7 nm NE): 120.875 (316-322-8095)
WX AWOS-3PT at 3AU (9 nm W): 124.175 (316-733-6696)
WX AWOS-3 at 1K1 (12 nm NW): 118.3 (316-530-6004)
WX AWOS-3PT at BEC (16 nm W): 119.45 (316-515-7116)
WX ASOS at AAO (17 nm W): 134.025 (316-636-2541)

Nearby radio navigation aids

VOR radial/distance  VOR name  Freq  Var
ICTr090/33.4WICHITA VORTAC113.8007E

Airport Services

Runway Information

Runway 17/35

Dimensions: 2340 x 50 ft. / 713 x 15 m
Surface: turf
RUNWAY 17  RUNWAY 35
Traffic pattern: leftleft
Obstructions: 35 ft. pline, 100 ft. from runway4 ft. fence

Airport Ownership and Management from official FAA records

Ownership: Privately-owned
Owner: HARRY & PHYLLIS THOMAS JR
2349 SW 100TH ST
AUGUSTA, KS 67010
Phone 316-775-6846
Manager: HARRY & PHYLLIS THOMAS JR
2349 SW 100TH ST
AUGUSTA, KS 67010
Phone 316-775-6846

Airport Operational Statistics

Aircraft based on the field: 3
Single engine airplanes: 3
    

Additional Remarks

FOR CD CTC WICHITA APCH AT 316-350-1520.

Instrument Procedures

There are no published instrument procedures at 20KS.

Some nearby airports with instrument procedures:

KEQA - El Dorado/Capt Jack Thomas Memorial Airport (7 nm NE)
3AU - Augusta Municipal Airport (9 nm W)
1K1 - Lloyd Stearman Field Airport (12 nm NW)
KBEC - Beech Factory Airport (16 nm W)
KAAO - Colonel James Jabara Airport (17 nm W)
KCEA - Cessna Aircraft Field Airport (17 nm W)
KIAB - Mc Connell Air Force Base (18 nm W)
 
Loc | Ops | Rwys | IFR | FBO | Links
Com | Nav | Svcs | Stats | Notes
Area around 20KS (Airpark Estates Airport)
 
Road maps at: MapQuest Bing Google
 
Aerial photo
No photo
 
Sectional chart

 
Airport distance calculator
Flying to Airpark Estates Airport? Find the distance to fly.

From to 20KS

Sunrise and sunset
Times for 01-Aug-2021
 Local
(UTC-5)
 Zulu
(UTC)
Morning civil twilight06:0311:03
Sunrise06:3211:32
Sunset20:3501:35
Evening civil twilight21:0402:04

Current date and time
Zulu (UTC)  01-Aug-2021 18:30:34
Local (UTC-5)  01-Aug-2021 13:30:34
 
METAR
KEQA 
7nm NE 
011815Z AUTO 01011G17KT 10SM CLR 30/12 A3017 RMK AO2
K3AU 
9nm W 
011810Z AUTO 36012G16KT 340V040 10SM SCT120 27/11 A3018 RMK AO2
K1K1 
12nm NW 
011815Z AUTO 36007KT 10SM CLR 29/14 A3019 RMK AO2 T02850137
KBEC 
16nm W 
011815Z AUTO 04008KT 10SM BKN120 27/15 A3018 RMK AO2 T02740145
KAAO 
16nm W 
011754Z AUTO 05013KT 10SM FEW055 29/15 A3018 RMK AO2 SLP206 T02940150 10294 20200 50001
KIAB 
18nm W 
011756Z 05011KT 9SM HZ SCT032 SCT055 28/16 A3018 RMK AO2A SLP210 T02770157 10279 20194 50000 $
TAF
KIAB 
18nm W 
011800Z 0118/0224 03012G18KT 8000 HZ SCT030 BKN060 QNH3011INS BECMG 0120/0121 03012G18KT 8000 HZ SCT100 QNH3008INS BECMG 0201/0202 03006KT 8000 HZ FEW100 QNH3009INS BECMG 0214/0215 08009KT 9999 NSW FEW050 QNH3006INS TX30/0121Z TN17/0211Z
NOTAMs
Click for the latest NOTAMs
NOTAMs are issued by the DoD/FAA and will open in a separate window not controlled by AirNav.

 

 
 

Would you like to see your business listed on this page?

 If your business provides an interesting product or service to pilots, flight crews, aircraft, or users of the Airpark Estates Airport, you should consider listing it here.  To start the listing process, click on the button below
 
Add a business
 

Other Pages about Airpark Estates Airport

Update a link
 
Copyright © AirNav, LLC. All rights reserved. Privacy Policy  Contact